sat.trackr.live / text

‹ back to catalog

STARLINK-4596

NORAD 53624 · 2022-104AN

PAYLOAD ACTIVE UNKNOWN

§ Identity

Operator
Country
US
Launch date
2022-08-28
Launch site
AFETR
Launch vehicle
Mass (kg)
RCS (m²)

Purposes: comms

External: N2YO · Heavens-Above · Gunter

§ Orbital elements

Epoch: 2026-09-20T17:15:20.114784Z

Period
94.01 min
Inclination
53.1573°
Eccentricity
0.0001255
Mean motion
15.31716425 rev/d
Perigee alt
469.8 km
Apogee alt
471.6 km
Semi-major
6,848.8 km
B*
8.5084e-5
RAAN
62.8085°
Arg perigee
82.5371°
Mean anomaly
277.5773°
Rev number
22,540

§ Raw data

STARLINK-45961 53624U 22104AN  26263.71898281  .00002277  00000+0  85084-4 0  99982 53624  53.1573  62.8085 0001255  82.5371 277.5773 15.31716425225400

JSON: /api/v1/satellites/53624 · /tle

For live sub-satellite position, see the globe view (requires WebGL).

§ Visibility from observer

Set your observer location to see the next 7 days of passes ≥ 10°. The values pass through the URL so the page stays shareable.

No JS? Fill the form by hand. The geolocation button needs JavaScript.